Change the Weather History Date:

Thursday, January 2, 2014

  Actual Average (KP28) Record (KP28)
Temperature  
Mean Temperature 25 °F 33 °F  
Max Temperature 42 °F 44 °F 69 °F (1997)
Min Temperature 8 °F 21 °F -9 °F (1979)
Degree Days  
Heating Degree Days 40 32  
Month to date heating degree days 64  
Since 1 July heating degree days 1863  
Cooling Degree Days 0 0  
Month to date cooling degree days 0  
Year to date cooling degree days 0  
Moisture  
Dew Point 18 °F    
Average Humidity 78    
Maximum Humidity 92    
Minimum Humidity 57    
Precipitation  
Precipitation 0.00 in 0.02 in 0.50 in (1975)
Month to date precipitation 0.04  
Year to date precipitation 0.04  
Snow  
Snow 0.00 in 0.10 in - ()
Month to date snowfall 0.1  
Since 1 July snowfall 3.0  
Snow Depth -    
Sea Level Pressure  
Sea Level Pressure 30.34 in    
Wind  
Wind Speed 9 mph (West)    
Max Wind Speed 14 mph    
Max Gust Speed 16 mph    
Visibility 10 miles    
Events      
T = Trace of Precipitation, MM = Missing Value Source: NWS Daily Summary

Daily Weather History Graph

Daily Weather History Graph

Search for Another Location

Airport or City:

Trip Planner

Search our weather history database for the weather conditions in past years. The results will help you decide how hot, cold, wet, or windy it might be!

Date:

Astronomy

Jan. 02, 2014 Rise Set
Actual Time 7:50 AM CST 5:28 PM CST
Civil Twilight 7:21 AM CST 5:57 PM CST
Nautical Twilight 6:48 AM CST 6:29 PM CST
Astronomical Twilight 6:16 AM CST 7:01 PM CST
Moon 8:35 AM CST (1/2) 7:24 PM CST (1/2)
Length of Visible Light 10h 36m
Length of Day
9h 37m
Waxing Crescent, 3% of the Moon is Illuminated
Jan 2
Waxing Crescent
Jan 7
First Quarter
Jan 15
Full
Jan 23
Last Quarter
Jan 30
New

Hourly Weather History & Observations

Time (CST) Temp. Windchill Dew Point Humidity Pressure Visibility Wind Dir Wind Speed Gust Speed Precip Events Conditions
12:15 AM 12.2 °F -3.1 °F 6.8 °F 79% 30.38 in 10.0 mi NNW 13.8 mph - N/A   Clear
12:35 AM 12.2 °F -2.5 °F 6.8 °F 79% 30.38 in 10.0 mi NNW 12.7 mph - N/A   Clear
12:55 AM 10.4 °F -4.1 °F 6.8 °F 85% 30.38 in 10.0 mi NNW 11.5 mph - N/A   Clear
1:15 AM 10.4 °F -2.4 °F 6.8 °F 85% 30.37 in 10.0 mi NNW 9.2 mph - N/A   Clear
1:35 AM 10.4 °F -2.4 °F 5.0 °F 79% 30.38 in 10.0 mi NNW 9.2 mph - N/A   Clear
1:55 AM 10.4 °F -2.4 °F 5.0 °F 79% 30.37 in 10.0 mi NNW 9.2 mph - N/A   Clear
2:15 AM 10.4 °F -1.5 °F 5.0 °F 79% 30.37 in 10.0 mi NNW 8.1 mph - N/A   Clear
2:35 AM 8.6 °F -2.6 °F 5.0 °F 85% 30.37 in 10.0 mi NNW 6.9 mph - N/A   Clear
2:55 AM 8.6 °F -2.6 °F 5.0 °F 85% 30.38 in 10.0 mi NNW 6.9 mph - N/A   Clear
3:15 AM 8.6 °F -3.7 °F 5.0 °F 85% 30.38 in 10.0 mi NW 8.1 mph - N/A   Clear
3:35 AM 8.6 °F -5.5 °F 5.0 °F 85% 30.38 in 10.0 mi NW 10.4 mph - N/A   Clear
3:55 AM 8.6 °F -4.7 °F 5.0 °F 85% 30.38 in 10.0 mi NW 9.2 mph - N/A   Clear
4:15 AM 8.6 °F -3.7 °F 5.0 °F 85% 30.38 in 10.0 mi NW 8.1 mph - N/A   Clear
4:35 AM 10.4 °F -0.4 °F 5.0 °F 79% 30.37 in 10.0 mi WNW 6.9 mph - N/A   Clear
4:55 AM 10.4 °F -1.5 °F 5.0 °F 79% 30.38 in 10.0 mi NW 8.1 mph - N/A   Clear
5:15 AM 10.4 °F -1.5 °F 6.8 °F 85% 30.38 in 10.0 mi WNW 8.1 mph - N/A   Clear
5:35 AM 10.4 °F 0.8 °F 6.8 °F 85% 30.37 in 10.0 mi WNW 5.8 mph - N/A   Clear
5:55 AM 8.6 °F 0.1 °F 5.0 °F 85% 30.37 in 10.0 mi West 4.6 mph - N/A   Clear
6:15 AM 10.4 °F -0.4 °F 6.8 °F 85% 30.36 in 10.0 mi NW 6.9 mph - N/A   Clear
6:35 AM 8.6 °F -3.7 °F 6.8 °F 92% 30.37 in 10.0 mi NW 8.1 mph - N/A   Clear
6:55 AM 8.6 °F -4.7 °F 5.0 °F 85% 30.37 in 10.0 mi WNW 9.2 mph - N/A   Clear
7:15 AM 8.6 °F -2.6 °F 6.8 °F 92% 30.36 in 10.0 mi WNW 6.9 mph - N/A   Clear
7:35 AM 8.6 °F -2.6 °F 5.0 °F 85% 30.36 in 10.0 mi West 6.9 mph - N/A   Clear
7:55 AM 10.4 °F 0.8 °F 6.8 °F 85% 30.36 in 10.0 mi WNW 5.8 mph - N/A   Clear
8:15 AM 10.4 °F -1.5 °F 6.8 °F 85% 30.36 in 10.0 mi West 8.1 mph - N/A   Clear
8:35 AM 10.4 °F -1.5 °F 8.6 °F 92% 30.38 in 10.0 mi SW 8.1 mph - N/A   Clear
8:55 AM 14.0 °F 2.9 °F 10.4 °F 86% 30.38 in 10.0 mi WSW 8.1 mph - N/A   Clear
9:15 AM 17.6 °F 5.7 °F 12.2 °F 79% 30.38 in 10.0 mi WSW 10.4 mph - N/A   Clear
9:35 AM 19.4 °F 8.6 °F 14.0 °F 80% 30.38 in 10.0 mi WSW 9.2 mph - N/A   Clear
9:55 AM 21.2 °F 10.1 °F 17.6 °F 86% 30.38 in 10.0 mi WSW 10.4 mph - N/A   Clear
10:15 AM 23.0 °F 12.4 °F 17.6 °F 80% 30.39 in 10.0 mi SW 10.4 mph - N/A   Clear
10:35 AM 26.6 °F 16.8 °F 19.4 °F 74% 30.39 in 10.0 mi SW 10.4 mph - N/A   Clear
10:55 AM 28.4 °F 19.7 °F 21.2 °F 74% 30.39 in 10.0 mi SW 9.2 mph - N/A   Clear
11:15 AM 30.2 °F 21.3 °F 21.2 °F 69% 30.39 in 10.0 mi SW 10.4 mph - N/A   Clear
11:35 AM 30.2 °F 21.9 °F 21.2 °F 69% 30.38 in 10.0 mi SW 9.2 mph - N/A   Clear
11:55 AM 32.0 °F 23.6 °F 23.0 °F 69% 30.37 in 10.0 mi SW 10.4 mph - N/A   Clear
12:15 PM 32.0 °F 24.8 °F 24.8 °F 75% 30.36 in 10.0 mi SSW 8.1 mph - N/A   Clear
12:35 PM 33.8 °F 26.4 °F 26.6 °F 75% 30.35 in 10.0 mi SW 9.2 mph - N/A   Clear
12:55 PM 35.6 °F 28.0 °F 26.6 °F 70% 30.34 in 10.0 mi SW 10.4 mph - N/A   Clear
1:15 PM 37.4 °F 30.8 °F 28.4 °F 70% 30.32 in 10.0 mi WSW 9.2 mph - N/A   Clear
1:35 PM 37.4 °F 30.8 °F 28.4 °F 70% 30.31 in 10.0 mi West 9.2 mph - N/A   Clear
1:55 PM 39.2 °F 32.5 °F 28.4 °F 65% 30.31 in 10.0 mi WSW 10.4 mph - N/A   Clear
2:15 PM 41.0 °F 34.7 °F 30.2 °F 65% 30.30 in 10.0 mi WSW 10.4 mph - N/A   Clear
2:35 PM 41.0 °F 35.8 °F 28.4 °F 61% 30.30 in 10.0 mi West 8.1 mph - N/A   Clear
2:55 PM 42.8 °F 37.5 °F 28.4 °F 57% 30.30 in 10.0 mi West 9.2 mph - N/A   Clear
3:15 PM 42.8 °F 37.0 °F 28.4 °F 57% 30.29 in 10.0 mi West 10.4 mph 16.1 mph N/A   Clear
3:35 PM 42.8 °F 36.6 °F 28.4 °F 57% 30.30 in 10.0 mi WNW 11.5 mph - N/A   Clear
3:55 PM 42.8 °F 36.2 °F 28.4 °F 57% 30.30 in 10.0 mi WNW 12.7 mph - N/A   Clear
4:15 PM 42.8 °F 37.0 °F 28.4 °F 57% 30.30 in 10.0 mi NW 10.4 mph - N/A   Clear
4:35 PM 41.0 °F 35.8 °F 28.4 °F 61% 30.30 in 10.0 mi NW 8.1 mph - N/A   Clear
4:55 PM 39.2 °F 34.2 °F 28.4 °F 65% 30.30 in 10.0 mi NNW 6.9 mph - N/A   Clear
5:15 PM 35.6 °F 31.7 °F 26.6 °F 70% 30.30 in 10.0 mi North 4.6 mph - N/A   Clear
5:35 PM 35.6 °F 32.8 °F 26.6 °F 70% 30.30 in 10.0 mi NNE 3.5 mph - N/A   Clear
5:55 PM 35.6 °F 31.7 °F 26.6 °F 70% 30.30 in 10.0 mi NE 4.6 mph - N/A   Clear
6:15 PM 33.8 °F 29.6 °F 26.6 °F 75% 30.31 in 10.0 mi ENE 4.6 mph - N/A   Clear
6:35 PM 33.8 °F 29.6 °F 26.6 °F 75% 30.30 in 10.0 mi East 4.6 mph - N/A   Clear
6:55 PM 32.0 °F 27.5 °F 26.6 °F 80% 30.30 in 10.0 mi ESE 4.6 mph - N/A   Clear
7:15 PM 32.0 °F 27.5 °F 26.6 °F 80% 30.31 in 10.0 mi South 4.6 mph - N/A   Clear
7:35 PM 32.0 °F 27.5 °F 26.6 °F 80% 30.31 in 10.0 mi South 4.6 mph - N/A   Clear
7:55 PM 32.0 °F 25.6 °F 26.6 °F 80% 30.31 in 10.0 mi South 6.9 mph - N/A   Clear
8:15 PM 30.2 °F 22.6 °F 26.6 °F 86% 30.31 in 10.0 mi South 8.1 mph - N/A   Clear
8:35 PM 30.2 °F 21.9 °F 26.6 °F 86% 30.30 in 10.0 mi SSE 9.2 mph - N/A   Clear
8:55 PM 30.2 °F 21.3 °F 24.8 °F 80% 30.30 in 10.0 mi SSE 10.4 mph - N/A   Clear
9:15 PM 30.2 °F 21.9 °F 24.8 °F 80% 30.30 in 10.0 mi SSE 9.2 mph - N/A   Clear
9:35 PM 28.4 °F 19.1 °F 23.0 °F 80% 30.30 in 10.0 mi SE 10.4 mph - N/A   Clear
9:55 PM 28.4 °F 19.7 °F 23.0 °F 80% 30.30 in 10.0 mi SSE 9.2 mph - N/A   Clear
10:15 PM 28.4 °F 21.2 °F 23.0 °F 80% 30.30 in 10.0 mi SSE 6.9 mph - N/A   Clear
10:35 PM 26.6 °F 18.2 °F 23.0 °F 86% 30.29 in 10.0 mi SSE 8.1 mph - N/A   Clear
10:55 PM 26.6 °F 18.2 °F 23.0 °F 86% 30.29 in 10.0 mi SSE 8.1 mph - N/A   Clear
11:15 PM 26.6 °F 17.5 °F 21.2 °F 80% 30.28 in 10.0 mi SSE 9.2 mph - N/A   Clear
11:35 PM 26.6 °F 16.2 °F 21.2 °F 80% 30.28 in 10.0 mi SSE 11.5 mph - N/A   Clear
11:55 PM 24.8 °F 14.6 °F 21.2 °F 86% 30.27 in 10.0 mi SSE 10.4 mph - N/A   Clear